Location: Crescent
(42.8242°N, 73.7329°W)
Time: 16:19:34
(UTC+00:00)

Envisat - Visible Passes

Search period start: 06 October 2024 00:00
Search period end: 16 October 2024 00:00
Orbit: 762 x 764 km, 98.3° (Epoch: 06 October)

Date Brightness Start Highest point End Pass type
(mag) Time Alt. Az. Time Alt. Az. Time Alt. Az.
06 Oct 4.7 07:36:05 10° NNE 07:38:51 29° NE 07:38:51 29° NE visible
06 Oct 4.2 09:15:37 10° NNW 09:18:59 23° NW 09:18:59 23° NW visible
07 Oct 5.7 06:59:30 10° NE 07:00:48 15° ENE 07:00:48 15° ENE visible
07 Oct 3.8 08:37:31 10° N 08:40:56 38° NNW 08:40:56 38° NNW visible
08 Oct 4.3 07:59:55 10° NNE 08:02:53 36° NNE 08:02:53 36° NNE visible
08 Oct 4.7 09:40:31 10° NNW 09:43:02 15° NW 09:43:02 15° NW visible
09 Oct 5.2 07:22:49 10° NNE 07:24:50 21° NE 07:24:50 21° NE visible
09 Oct 4.1 09:01:51 10° N 09:04:58 27° NW 09:04:58 27° NW visible
10 Oct 6.0 06:46:42 10° NE 06:46:47 10° NE 06:46:47 10° NE visible
10 Oct 4.1 08:23:57 10° N 08:26:55 35° N 08:26:55 35° N visible
11 Oct 4.8 07:46:30 10° NNE 07:48:51 27° NNE 07:48:51 27° NNE visible
11 Oct 4.6 09:26:28 10° NNW 09:28:59 18° NW 09:28:59 18° NW visible
12 Oct 5.7 07:09:38 10° NE 07:10:47 15° NE 07:10:47 15° NE visible
12 Oct 4.2 08:48:08 10° N 08:50:56 28° NNW 08:50:56 28° NNW visible
13 Oct 4.5 08:10:24 10° NNE 08:12:52 29° NNE 08:12:52 29° NNE visible
13 Oct 4.9 09:51:45 10° NW 09:53:00 12° NW 09:53:00 12° NW visible
14 Oct 5.3 07:33:07 10° NNE 07:34:48 20° NE 07:34:48 20° NE visible
14 Oct 4.5 09:12:34 10° NNW 09:14:56 21° NW 09:14:56 21° NW visible
15 Oct 6.0 06:56:36 10° NE 06:56:44 10° NE 06:56:44 10° NE visible
15 Oct 4.4 08:34:29 10° N 08:36:52 27° N 08:36:52 27° N visible
